Location: Ocean City
(38.3360°N, 75.0850°W)
Time: 18:07:38
(UTC-05:00)

Explorer 11/Cluster Stage 4 - Pass Details

Date: 17 November 2019
Orbit: 467 x 1259 km, 28.8° (Epoch: 05 December)

Event Time Altitude Azimuth Distance (km) Brightness Sun altitude
Rises 22:03:50 0° 251° (WSW) 3,570 - -60.8°
Reaches altitude 10° 22:06:26 10° 244° (WSW) 2,744 - -61.2°
Maximum altitude 22:12:45 40° 177° (S) 1,594 - -62.2°
Drops below altitude 10° 22:20:01 10° 112° (ESE) 3,167 - -63.3°
Sets 22:23:14 0° 106° (ESE) 4,178 - -63.8°
